Location: Grieser Field
(39.7333°N, 81.7975°W)
Time: 04:46:32
(UTC-04:00)

MOS 1-B - Visible Passes

Search period start: 26 September 2016 00:00
Search period end: 06 October 2016 00:00
Orbit: 905 x 914 km, 99.3° (Epoch: 24 September)

Date Brightness Start Highest point End Pass type
(mag) Time Alt. Az. Time Alt. Az. Time Alt. Az.
26 Sep 4.7 04:21:48 10° NNE 04:26:47 61° ENE 04:26:47 61° ENE visible
26 Sep 5.8 06:05:06 10° NNW 06:08:48 18° WNW 06:10:02 17° WNW visible
27 Sep 4.6 04:27:14 10° NNE 04:32:12 64° NE 04:32:12 64° NE visible
27 Sep 5.8 06:10:48 10° NNW 06:14:11 16° WNW 06:15:27 15° WNW visible
28 Sep 4.5 04:32:40 10° NNE 04:37:38 67° NNE 04:37:38 67° NNE visible
28 Sep 5.9 06:16:33 10° NNW 06:19:33 15° WNW 06:20:52 14° WNW visible
29 Sep 7.1 02:59:23 10° ENE 02:59:48 11° ENE 02:59:48 11° ENE visible
29 Sep 4.5 04:38:07 10° NNE 04:43:03 66° N 04:43:03 66° N visible
29 Sep 6.0 06:22:21 10° NNW 06:24:55 13° WNW 06:26:18 12° WNW visible
30 Sep 7.0 03:04:12 10° ENE 03:05:14 12° ENE 03:05:14 12° ENE visible
30 Sep 4.5 04:43:34 10° NNE 04:48:28 64° N 04:48:28 64° N visible
30 Sep 6.1 06:28:18 10° NW 06:30:16 12° WNW 06:31:43 11° WNW visible
01 Oct 6.9 03:09:11 10° ENE 03:10:38 13° ENE 03:10:38 13° ENE visible
01 Oct 4.5 04:49:02 10° N 04:53:52 60° NNW 04:53:52 60° NNW visible
01 Oct 6.2 06:34:33 10° NW 06:35:37 10° NW 06:36:41 10° WNW visible
02 Oct 6.8 03:14:17 10° NE 03:16:03 15° ENE 03:16:03 15° ENE visible
02 Oct 4.6 04:54:30 10° N 04:59:17 56° NNW 04:59:17 56° NNW visible
03 Oct 6.8 03:19:26 10° NE 03:21:28 16° ENE 03:21:28 16° ENE visible
03 Oct 4.6 05:00:00 10° N 05:04:42 52° NNW 05:04:42 52° NNW visible
04 Oct 6.7 03:24:38 10° NE 03:26:52 18° ENE 03:26:52 18° ENE visible
04 Oct 4.7 05:05:29 10° N 05:10:07 47° NW 05:10:07 47° NW visible
05 Oct 6.6 03:29:53 10° NE 03:32:17 19° ENE 03:32:17 19° ENE visible
05 Oct 4.8 05:10:58 10° N 05:15:32 43° NW 05:15:32 43° NW visible
